Location: Lane
(33.5226°N, 79.8788°W)
Time: 12:39:58
(UTC+00:00)

Tiros 1 despin weight - Pass Details

Date: 06 October 2022
Orbit: 590 x 637 km, 48.2° (Epoch: 25 November)

Event Time Altitude Azimuth Distance (km) Brightness Sun altitude
Rises 20:45:09 0° 272° (W) 2,827 ? 25.6°
Reaches altitude 10° 20:47:54 10° 289° (WNW) 1,935 ? 25.1°
Maximum altitude 20:51:17 21° 339° (NNW) 1,373 ? 24.4°
Drops below altitude 10° 20:54:42 10° 28° (NNE) 1,960 ? 23.8°
Sets 20:57:30 0° 45° (NE) 2,877 ? 23.2°
